sat.trackr.live / text

‹ back to catalog

STARLINK-3272

NORAD 50187 · 2021-125AH

PAYLOAD ACTIVE UNKNOWN

§ Identity

Operator
Country
US
Launch date
2021-12-18
Launch site
AFWTR
Launch vehicle
Mass (kg)
RCS (m²)

Purposes: comms

External: N2YO · Heavens-Above · Gunter

§ Orbital elements

Epoch: 2026-05-25T00:53:06.717120Z

Period
95.30 min
Inclination
53.2143°
Eccentricity
0.0000784
Mean motion
15.10976629 rev/d
Perigee alt
532.7 km
Apogee alt
533.8 km
Semi-major
6,911.4 km
B*
9.2943e-4
RAAN
255.8311°
Arg perigee
110.2468°
Mean anomaly
249.8610°
Rev number
24,825

§ Raw data

STARLINK-32721 50187U 21125AH  26145.03688330  .00015429  00000+0  92943-3 0  99912 50187  53.2143 255.8311 0000784 110.2468 249.8610 15.10976629248254

JSON: /api/v1/satellites/50187 · /tle

For live sub-satellite position, see the globe view (requires WebGL).

§ Visibility from observer

Set your observer location to see the next 7 days of passes ≥ 10°. The values pass through the URL so the page stays shareable.

No JS? Fill the form by hand. The geolocation button needs JavaScript.